This demonstration page uses our WeatherBlox Daily Observations layout. Learn more.

Hourly Observations for June 10, 2020

Temp ( °F °C ) Dew Point ( °F °C ) Humidity (%) Winds ( mph kmh ) Pressure ( in mb ) Visibility ( mi km ) Precip ( " mm )
12:15 am 00:15 Clear 77 25 72 22 83 83 S 7 11 29.94 1014 10 16.0934 0 0
12:35 am 00:35 Clear 79 26 72 22 79 79 S 7 11 29.93 1014 10 16.0934 0 0
12:55 am 00:55 Clear 77 25 72 22 83 83 S 6 9 29.93 1014 10 16.0934 0 0
1:15 am 01:15 Clear 77 25 72 22 83 83 SSW 6 9 29.93 1014 10 16.0934 0 0
1:35 am 01:35 Clear 77 25 72 22 83 83 S 5 7 29.92 1013 10 16.0934 0 0
1:55 am 01:55 Clear 75 24 70 21 83 83 S 6 9 29.93 1013 10 16.0934 0 0
2:15 am 02:15 Clear 73 23 70 21 89 89 SSW 6 9 29.93 1013 10 16.0934 0 0
2:35 am 02:35 Clear 73 23 70 21 89 89 S 6 9 29.93 1013 10 16.0934 0 0
2:55 am 02:55 Clear 73 23 70 21 89 89 S 7 11 29.92 1013 10 16.0934 0 0
3:15 am 03:15 Clear 73 23 70 21 89 89 SSW 6 9 29.92 1013 10 16.0934 0 0
3:35 am 03:35 Clear 72 22 70 21 94 94 SSW 6 9 29.92 1013 10 16.0934 0 0
3:55 am 03:55 Clear 72 22 70 21 94 94 SSW 6 9 29.92 1013 10 16.0934 0 0
4:15 am 04:15 Clear 72 22 70 21 94 94 SSW 7 11 29.91 1013 10 16.0934 0 0
4:35 am 04:35 Clear 72 22 70 21 94 94 S 7 11 29.91 1013 10 16.0934 0 0
4:55 am 04:55 Clear 72 22 70 21 94 94 S 6 9 29.9 1012 10 16.0934 0 0
5:15 am 05:15 Clear 72 22 70 21 94 94 S 6 9 29.9 1012 10 16.0934 0 0
5:35 am 05:35 Clear 70 21 70 21 100 100 SW 3 6 29.91 1013 10 16.0934 0 0
5:55 am 05:55 Sunny 70 21 70 21 100 100 SSW 3 6 29.92 1013 10 16.0934 0 0
6:15 am 06:15 Sunny 72 22 70 21 94 94 S 5 7 29.92 1013 10 16.0934 0 0
6:35 am 06:35 Sunny 70 21 70 21 100 100 S 3 6 29.93 1014 10 16.0934 0 0
6:55 am 06:55 Sunny 72 22 70 21 94 94 S 5 7 29.94 1014 10 16.0934 0 0
7:15 am 07:15 Sunny 72 22 70 21 94 94 S 8 13 29.94 1014 10 16.0934 0 0
7:35 am 07:35 Mostly Cloudy 72 22 72 22 100 100 SSW 6 9 29.94 1014 10 16.0934 0 0
7:55 am 07:55 Cloudy 73 23 72 22 94 94 S 7 11 29.94 1014 10 16.0934 0 0
8:15 am 08:15 Cloudy 73 23 72 22 94 94 S 6 9 29.95 1014 10 16.0934 0 0
8:35 am 08:35 Cloudy 73 23 72 22 94 94 SSW 7 11 29.95 1014 10 16.0934 0 0
8:55 am 08:55 Cloudy 73 23 72 22 94 94 S 6 9 29.95 1014 10 16.0934 0 0
9:15 am 09:15 Cloudy 75 24 72 22 89 89 SSW 6 9 29.96 1014 10 16.0934 0 0
9:35 am 09:35 Mostly Cloudy 77 25 72 22 83 83 SSW 3 6 29.94 1014 10 16.0934 0 0
9:55 am 09:55 Mostly Cloudy 79 26 72 22 79 79 S 7 11 29.93 1014 10 16.0934 0 0
10:15 am 10:15 Mostly Cloudy 79 26 73 23 84 84 SSW 7 11 29.93 1014 10 16.0934 0 0
10:35 am 10:35 Cloudy 81 27 73 23 79 79 SSW 12 19 29.92 1013 10 16.0934 0 0
10:55 am 10:55 Mostly Cloudy 82 28 73 23 74 74 S 13 20 29.92 1013 10 16.0934 0 0
11:15 am 11:15 Partly Cloudy 84 29 73 23 70 70 SSW 12 19 29.93 1014 10 16.0934 0 0
11:35 am 11:35 Partly Cloudy 86 30 73 23 66 66 SSW 12 19 29.92 1013 10 16.0934 0 0
11:55 am 11:55 Partly Cloudy 86 30 73 23 66 66 SSW 16 26 29.91 1013 10 16.0934 0 0
12:15 pm 12:15 Partly Cloudy 88 31 73 23 62 62 S 17 28 29.91 1013 10 16.0934 0 0
12:35 pm 12:35 Partly Cloudy 88 31 73 23 62 62 S 14 22 29.91 1013 10 16.0934 0 0
12:55 pm 12:55 Mostly Cloudy 88 31 73 23 62 62 S 13 20 29.9 1012 10 16.0934 0 0
1:15 pm 13:15 Mostly Cloudy 88 31 73 23 62 62 SSW 17 28 29.9 1012 10 16.0934 0 0
1:35 pm 13:35 Mostly Cloudy 90 32 73 23 59 59 S 16 26 29.89 1012 10 16.0934 0 0
1:55 pm 13:55 Mostly Cloudy 88 31 73 23 62 62 S 16 26 29.89 1012 10 16.0934 0 0
2:15 pm 14:15 Mostly Cloudy 90 32 73 23 59 59 S 15 24 29.88 1012 10 16.0934 0 0
2:35 pm 14:35 Mostly Cloudy 90 32 73 23 59 59 S 18 30 29.88 1012 10 16.0934 0 0
2:55 pm 14:55 Mostly Cloudy 90 32 73 23 59 59 S 14 22 29.88 1012 10 16.0934 0 0
3:15 pm 15:15 Mostly Cloudy 90 32 73 23 59 59 S 17 28 29.88 1012 10 16.0934 0 0
3:35 pm 15:35 Mostly Cloudy 91 33 73 23 56 56 S 13 20 29.86 1011 10 16.0934 0 0
3:55 pm 15:55 Mostly Cloudy 91 33 73 23 56 56 SSW 14 22 29.86 1011 10 16.0934 0 0
4:15 pm 16:15 Mostly Cloudy 90 32 73 23 59 59 S 12 19 29.86 1011 10 16.0934 0 0
4:35 pm 16:35 Partly Cloudy 91 33 73 23 56 56 S 16 26 29.85 1011 10 16.0934 0 0
4:55 pm 16:55 Mostly Cloudy 91 33 73 23 56 56 S 14 22 29.85 1011 10 16.0934 0 0
5:15 pm 17:15 Partly Cloudy 91 33 73 23 56 56 S 17 28 29.85 1011 10 16.0934 0 0
5:35 pm 17:35 Mostly Cloudy 88 31 79 26 75 75 S 10 17 29.86 1011 7 11.26538 0 0
5:55 pm 17:55 Mostly Cloudy 86 30 77 25 75 75 S 10 17 29.86 1011 10 16.0934 0 0
6:15 pm 18:15 Partly Cloudy with Nearby Thunderstorms 88 31 75 24 66 66 S 9 15 29.86 1011 10 16.0934 0 0
6:35 pm 18:35 Mostly Cloudy 88 31 77 25 70 70 SSW 10 17 29.86 1011 10 16.0934 0 0
6:55 pm 18:55 Cloudy with Nearby Thunderstorms 86 30 77 25 75 75 S 12 19 29.86 1011 10 16.0934 0 0
7:15 pm 19:15 Cloudy with Thunderstorms 79 26 75 24 89 89 S 28 44 29.9 1013 2 3.21868 0.12 3.048
7:35 pm 19:35 Mostly Cloudy with Thunderstorms 73 23 73 23 100 100 S 8 13 29.89 1012 10 16.0934 0.23 5.842
7:55 pm 19:55 Partly Cloudy with Nearby Thunderstorms 73 23 73 23 100 100 SSE 13 20 29.88 1012 10 16.0934 0.23 5.842
8:15 pm 20:15 Sunny with Nearby Thunderstorms 73 23 72 22 94 94 S 10 17 29.88 1012 10 16.0934 0 0
8:35 pm 20:35 Partly Cloudy 72 22 72 22 100 100 S 7 11 29.89 1012 10 16.0934 0 0
8:55 pm 20:55 Partly Cloudy 72 22 72 22 100 100 S 5 7 29.88 1012 10 16.0934 0 0
9:15 pm 21:15 Mostly Cloudy with Thunderstorms 70 21 70 21 100 100 SSW 6 9 29.89 1012 10 16.0934 0 0
9:35 pm 21:35 Mostly Cloudy 70 21 70 21 100 100 WSW 22 35 29.92 1013 10 16.0934 0 0
9:55 pm 21:55 Mostly Cloudy with Thunderstorms 70 21 68 20 94 94 SW 5 7 29.89 1012 5 8.0467 0.23 5.842
10:15 pm 22:15 Partly Cloudy with Thunderstorms 68 20 68 20 100 100 WSW 5 7 29.9 1013 10 16.0934 0 0
10:35 pm 22:35 Mostly Cloudy with Thunderstorms 68 20 68 20 100 100 WSW 9 15 29.95 1014 10 16.0934 0.01 0.254
10:55 pm 22:55 Cloudy with Thunderstorms 68 20 68 20 100 100 S 15 24 29.92 1013 3 4.82802 0.35 8.89
11:15 pm 23:15 Cloudy with Nearby Thunderstorms 68 20 68 20 100 100 S 6 9 29.92 1013 10 16.0934 0.01 0.254
11:35 pm 23:35 Partly Cloudy 68 20 68 20 100 100 SSW 5 7 29.91 1013 10 16.0934 0.02 0.508
11:55 pm 23:55 Partly Cloudy with Nearby Thunderstorms 68 20 68 20 100 100 S 7 11 29.91 1013 10 16.0934 0.02 0.508

Powered by AerisWeather